Location: Anjeux
(47.8815°N, 6.2076°E)
Time: 16:40:18
(UTC+00:00)

BEESAT - Visible Passes

Search period start: 03 December 2022 00:00
Search period end: 13 December 2022 00:00
Orbit: 699 x 706 km, 98.5° (Epoch: 02 December)

Date Brightness Start Highest point End Pass type
(mag) Time Alt. Az. Time Alt. Az. Time Alt. Az.
04 Dec ? 05:50:46 10° E 05:53:32 16° ENE 05:56:19 10° NNE visible
05 Dec ? 06:31:37 10° SE 06:35:51 33° ENE 06:40:07 10° N visible
06 Dec ? 05:39:34 10° ENE 05:41:31 12° NE 05:43:29 10° NNE visible
07 Dec ? 06:19:49 10° ESE 06:23:45 26° ENE 06:27:44 10° N visible
09 Dec ? 06:08:09 10° ESE 06:11:41 21° ENE 06:15:15 10° NNE visible
11 Dec ? 05:56:36 10° E 05:59:38 17° ENE 06:02:41 10° NNE visible
